EW6379 Weather Reports


Display with metric or nautical units.
time (UTC)temp
F
wind
direction
speed
MPH
gust
MPH
rain 1hr
in
rain 24hr
in
rain mn
in
humidity
%
barometer
mb
20260509034525 64 15.0 26.0 0.00 0.00 0.00 25 1011.6
20260509033023 65 16.0 26.0 0.00 0.00 0.00 25 1011.1
20260509031527 66 18.0 32.0 0.00 0.00 0.00 23 1010.9
20260509030020 67 12.0 33.0 0.00 0.00 0.00 23 1010.4
20260509024519 67 18.0 33.0 0.00 0.00 0.00 24 1010.3
20260509023021 68 14.0 27.0 0.00 0.00 0.00 24 1010.3
20260509021520 68 10.0 23.0 0.00 0.00 0.00 24 1010.1
20260509020018 69 9.0 16.0 0.00 0.00 0.00 23 1010.1
20260509014533 69 12.0 30.0 0.00 0.00 0.00 23 1010.1
20260509013013 69 15.0 25.0 0.00 0.00 0.00 22 1010.1
20260509011509 70 16.0 29.0 0.00 0.00 0.00 22 1010.0
20260509010004 69 18.0 28.0 0.00 0.00 0.00 22 1010.0
20260509004502 69 12.0 25.0 0.00 0.00 0.00 22 1009.7
20260509003002 69 17.0 28.0 0.00 0.00 0.00 22 1009.9
20260509001600 69 17.0 34.0 0.00 0.00 0.00 22 1009.8
20260509000058 70 13.0 24.0 0.00 0.00 0.00 23 1009.7
20260508234559 71 9.0 18.0 0.00 0.00 0.00 23 1009.7
20260508233058 72 13.0 21.0 0.00 0.00 0.00 21 1009.8
20260508231559 74 11.0 16.0 0.00 0.00 0.00 18 1009.5
20260508230125 74 9.0 17.0 0.00 0.00 0.00 18 1009.7
20260508224602 74 0.0 9.0 0.00 0.00 0.00 33 1009.5
20260508223054 74 1.0 4.0 0.00 0.00 0.00 31 1009.3
20260508221551 74 0.0 4.0 0.00 0.00 0.00 31 1009.4
20260508220114 72 4.0 10.0 0.00 0.00 0.00 33 1009.5
20260508214551 71 4.0 8.0 0.00 0.00 0.00 36 1009.6
20260508213052 71 2.0 5.0 0.00 0.00 0.00 39 1009.8
20260508211548 71 1.0 7.0 0.00 0.00 0.00 39 1009.8
20260508210045 72 1.0 5.0 0.00 0.00 0.00 36 1009.8
20260508204545 71 0.0 5.0 0.00 0.00 0.00 36 1009.7
20260508203046 70 3.0 6.0 0.00 0.00 0.00 39 1009.7
20260508201543 70 2.0 6.0 0.00 0.00 0.00 40 1009.7
20260508200042 70 0.0 3.0 0.00 0.00 0.00 40 1009.6
20260508194540 69 5.0 12.0 0.00 0.00 0.00 41 1009.6
20260508193037 68 1.0 4.0 0.00 0.00 0.00 42 1009.9
20260508191534 68 0.0 1.0 0.00 0.00 0.00 43 1010.1
20260508190039 67 1.0 5.0 0.00 0.00 0.00 42 1010.2
20260508184541 66 0.0 4.0 0.00 0.00 0.00 42 1010.2
20260508183029 66 2.0 6.0 0.00 0.00 0.00 42 1010.2
20260508181537 66 2.0 6.0 0.00 0.00 0.00 43 1010.2
20260508180024 64 3.0 5.0 0.00 0.00 0.00 43 1010.4
20260508174533 63 1.0 4.0 0.00 0.00 0.00 46 1010.4
20260508173023 63 0.0 4.0 0.00 0.00 0.00 45 1010.3
20260508171522 63 0.0 6.0 0.00 0.00 0.00 44 1010.4
20260508170021 62 1.0 3.0 0.00 0.00 0.00 46 1010.3
20260508164520 62 0.0 6.0 0.00 0.00 0.00 46 1010.3
20260508163032 61 1.0 5.0 0.00 0.00 0.00 47 1010.3
20260508161527 61 0.0 1.0 0.00 0.00 0.00 48 1010.3
20260508160018 60 0.0 3.0 0.00 0.00 0.00 49 1010.4
20260508154518 58 0.0 3.0 0.00 0.00 0.00 52 1010.3
20260508153020 58 0.0 2.0 0.00 0.00 0.00 54 1010.4
20260508151516 57 0.0 3.0 0.00 0.00 0.00 56 1010.5
20260508150018 57 2.0 6.0 0.00 0.00 0.00 56 1010.3
20260508144513 57 0.0 0.0 0.00 0.00 0.00 57 1010.0
20260508143015 56 0.0 1.0 0.00 0.00 0.00 61 1010.0
20260508141509 55 0.0 2.0 0.00 0.00 0.00 60 1010.0
20260508140016 56 0.0 0.0 0.00 0.00 0.00 61 1009.9
20260508134512 55 0.0 0.0 0.00 0.00 0.00 61 1009.9
20260508133106 54 0.0 0.0 0.00 0.00 0.00 61 1009.9
20260508131505 54 0.0 0.0 0.00 0.00 0.00 61 1009.7
20260508130005 54 0.0 0.0 0.00 0.00 0.00 60 1009.6
20260508124505 53 0.0 0.0 0.00 0.00 0.00 62 1009.4
20260508123109 54 0.0 0.0 0.00 0.00 0.00 61 1009.4
20260508121559 54 0.0 0.0 0.00 0.00 0.00 60 1009.3
20260508120056 54 0.0 0.0 0.00 0.00 0.00 59 1009.4
20260508114554 55 0.0 0.0 0.00 0.00 0.00 58 1009.4
20260508113101 55 0.0 0.0 0.00 0.00 0.00 58 1009.3
20260508111549 55 0.0 3.0 0.00 0.00 0.00 58 1009.4
20260508110047 56 0.0 2.0 0.00 0.00 0.00 57 1009.2
20260508104543 56 1.0 3.0 0.00 0.00 0.00 56 1009.1
20260508103047 57 2.0 4.0 0.00 0.00 0.00 56 1009.0
20260508101540 57 0.0 0.0 0.00 0.00 0.00 55 1009.0
20260508100039 57 0.0 0.0 0.00 0.00 0.00 54 1009.0
20260508094600 58 0.0 0.0 0.00 0.00 0.00 54 1009.0
20260508093038 56 0.0 2.0 0.00 0.00 0.00 56 1009.0
20260508091540 59 0.0 0.0 0.00 0.00 0.00 51 1009.0
20260508090031 60 0.0 0.0 0.00 0.00 0.00 51 1009.0
20260508084529 60 0.0 0.0 0.00 0.00 0.00 50 1009.0
20260508083027 60 1.0 3.0 0.00 0.00 0.00 50 1008.9
20260508081553 61 2.0 3.0 0.00 0.00 0.00 48 1008.8
20260508080022 61 0.0 0.0 0.00 0.00 0.00 47 1008.8
20260508074519 62 0.0 0.0 0.00 0.00 0.00 46 1008.8
20260508073019 62 0.0 0.0 0.00 0.00 0.00 46 1008.8
20260508071534 63 0.0 0.0 0.00 0.00 0.00 45 1008.7
20260508070012 63 0.0 0.0 0.00 0.00 0.00 43 1008.6
20260508064512 64 0.0 0.0 0.00 0.00 0.00 43 1008.7
20260508063023 64 0.0 0.0 0.00 0.00 0.00 43 1008.8
20260508061510 65 0.0 0.0 0.00 0.00 0.00 41 1008.6
20260508060010 66 0.0 1.0 0.00 0.00 0.00 41 1008.5
20260508054509 66 0.0 0.0 0.00 0.00 0.00 41 1008.4
20260508053009 67 0.0 0.0 0.00 0.00 0.00 40 1008.5
20260508051508 67 0.0 3.0 0.00 0.00 0.00 40 1008.4
20260508050007 67 0.0 0.0 0.00 0.00 0.00 40 1008.3
20260508044507 69 0.0 4.0 0.00 0.00 0.00 37 1008.3
20260508043009 70 1.0 5.0 0.00 0.00 0.00 37 1008.1
20260508041506 71 3.0 7.0 0.00 0.00 0.00 35 1008.1
20260508040005 71 5.0 8.0 0.00 0.00 0.00 36 1008.0